Location: Ar Ranvel
(48.3000°N, 4.8833°W)
Time: 09:01:42
(UTC+00:00)

Meteor 1-24 Rocket - Pass Details

Date: 16 June 2021
Orbit: 791 x 926 km, 81.2° (Epoch: 26 July)

Event Time Altitude Azimuth Distance (km) Brightness Sun altitude
Exits shadow 23:13:16 20° 203° (SSW) 1,791 5.0 -16.8°
Maximum altitude 23:17:03 69° 283° (WNW) 864 3.8 -16.9°
Drops below altitude 10° 23:22:32 10° 8° (N) 2,436 7.2 -17.2°
Sets 23:25:00 0° 11° (N) 3,393 8.1 -17.3°
